LROP Weather Reports


time (UTC)temp
C
wind
direction
speed
KPH
gust
KPH
rain 1hr
cm
rain 24hr
cm
rain mn
cm
humidity
%
barometer
mb
20260504004916 5 260 11.3 0.0 0.00 0.00 0.00 87 1018.0
20260504003301 5 260 11.3 0.0 0.00 0.00 0.00 87 1018.0
20260504001802 5 280 9.7 0.0 0.00 0.00 0.00 81 1018.0
20260504000302 5 280 9.7 0.0 0.00 0.00 0.00 81 1018.0
20260503234841 5 300 11.3 0.0 0.00 0.00 0.00 87 1018.0
20260503233302 5 300 11.3 0.0 0.00 0.00 0.00 87 1018.0
20260503231805 6 300 12.9 0.0 0.00 0.00 0.00 81 1018.0
20260503230314 6 300 12.9 0.0 0.00 0.00 0.00 81 1018.0
20260503224802 6 300 12.9 0.0 0.00 0.00 0.00 81 1018.0
20260503223314 6 300 12.9 0.0 0.00 0.00 0.00 81 1018.0
20260503221818 6 290 12.9 0.0 0.00 0.00 0.00 81 1019.0
20260503220344 6 290 12.9 0.0 0.00 0.00 0.00 81 1019.0
20260503214809 6 270 12.9 0.0 0.00 0.00 0.00 81 1019.0
20260503213302 6 270 12.9 0.0 0.00 0.00 0.00 81 1019.0
20260503211802 7 280 11.3 0.0 0.00 0.00 0.00 76 1019.0
20260503210302 7 280 11.3 0.0 0.00 0.00 0.00 76 1019.0
20260503204809 7 280 12.9 0.0 0.00 0.00 0.00 76 1019.0
20260503203415 7 280 12.9 0.0 0.00 0.00 0.00 76 1019.0
20260503201802 7 270 11.3 0.0 0.00 0.00 0.00 66 1019.0
20260503200311 7 270 11.3 0.0 0.00 0.00 0.00 66 1019.0
20260503194826 8 270 8.0 0.0 0.00 0.00 0.00 62 1020.0
20260503193416 8 270 8.0 0.0 0.00 0.00 0.00 62 1020.0
20260503191802 10 0 0.0 0.0 0.00 0.00 0.00 50 1019.0
20260503190302 10 0 0.0 0.0 0.00 0.00 0.00 50 1019.0
20260503184915 11 0 0.0 0.0 0.00 0.00 0.00 50 1019.0
20260503183301 11 0 0.0 0.0 0.00 0.00 0.00 50 1019.0
20260503181802 11 140 3.2 0.0 0.00 0.00 0.00 47 1019.0
20260503180301 11 140 3.2 0.0 0.00 0.00 0.00 47 1019.0
20260503174822 11 110 4.8 0.0 0.00 0.00 0.00 50 1019.0
20260503173326 11 110 4.8 0.0 0.00 0.00 0.00 50 1019.0
20260503171802 12 100 3.2 0.0 0.00 0.00 0.00 47 1019.0
20260503170302 12 100 3.2 0.0 0.00 0.00 0.00 47 1019.0
20260503150302 16 230 4.8 0.0 0.00 0.00 0.00 34 1019.0
20260503140309 15 70 14.5 0.0 0.00 0.00 0.00 31 1020.0
20260503130302 15 110 9.7 0.0 0.00 0.00 0.00 31 1021.0
20260503110323 15 70 12.9 0.0 0.00 0.00 0.00 36 1022.0
20260503090323 13 80 16.1 0.0 0.00 0.00 0.00 41 1023.0
20260503080312 12 70 14.5 0.0 0.00 0.00 0.00 41 1023.0
20260503071804 11 50 16.1 0.0 0.00 0.00 0.00 47 1023.0
20260503070303 11 50 16.1 0.0 0.00 0.00 0.00 47 1023.0
20260503060302 8 20 11.3 0.0 0.00 0.00 0.00 66 1023.0
20260503054802 7 20 9.7 0.0 0.00 0.00 0.00 66 1023.0
20260503053302 7 20 9.7 0.0 0.00 0.00 0.00 66 1023.0
20260503051802 7 10 11.3 0.0 0.00 0.00 0.00 71 1023.0
20260503050302 7 10 11.3 0.0 0.00 0.00 0.00 71 1023.0
20260503044802 5 360 9.7 0.0 0.00 0.00 0.00 81 1023.0
20260503043303 5 360 9.7 0.0 0.00 0.00 0.00 81 1023.0
20260503041802 5 20 4.8 0.0 0.00 0.00 0.00 81 1022.0
20260503040325 5 20 4.8 0.0 0.00 0.00 0.00 81 1022.0
20260503034804 2 350 9.7 0.0 0.00 0.00 0.00 93 1022.0
20260503033302 2 350 9.7 0.0 0.00 0.00 0.00 93 1022.0
20260503031802 3 360 12.9 0.0 0.00 0.00 0.00 81 1022.0
20260503030302 3 360 12.9 0.0 0.00 0.00 0.00 81 1022.0
20260503024816 3 350 14.5 0.0 0.00 0.00 0.00 81 1022.0
20260503023302 3 350 14.5 0.0 0.00 0.00 0.00 81 1022.0
20260503021802 2 350 11.3 0.0 0.00 0.00 0.00 87 1022.0
20260503020302 2 350 11.3 0.0 0.00 0.00 0.00 87 1022.0
20260503014802 3 360 9.7 0.0 0.00 0.00 0.00 87 1022.0
20260503013302 3 360 9.7 0.0 0.00 0.00 0.00 87 1022.0
20260503011802 3 10 9.7 0.0 0.00 0.00 0.00 87 1022.0
20260503010302 3 10 9.7 0.0 0.00 0.00 0.00 87 1022.0